UPS2614 PANC-RKSI

Flight info

Callsign UPS2614
Flight time N/A
Altitude 30000
Route NODLE R220 NODAN R217 ASTER Y514 SDE Y512 GTC Y142 SAMON Y14 SUGNO Y16 SAPRA Y685 GUKDO GUKDO2E
Aircraft B763/H-SDE3FGHIM3RWXY/LB1

Departure

Time 2026-05-04 14:23
Airport Ted Stevens Anchorage International Airport (PANC)

Arrival

Time N/A
Airport Incheon International Airport (RKSI)
Time Latitude Longitude Altitude Speed Heading
2026-05-04 13:54 61.19390 -150.00267 163 ft 0 kts 76°
2026-05-04 14:13 61.19387 -150.00295 163 ft 2 kts 76°
2026-05-04 14:14 61.19383 -150.00325 163 ft 2 kts 76°
2026-05-04 14:14 61.19376 -150.00386 163 ft 2 kts 76°
2026-05-04 14:14 61.19372 -150.00415 163 ft 2 kts 76°
2026-05-04 14:15 61.19370 -150.00427 163 ft 0 kts 76°
2026-05-04 14:17 61.19371 -150.00426 163 ft 0 kts 76°
2026-05-04 14:17 61.19356 -150.00380 163 ft 5 kts 180°
2026-05-04 14:18 61.19292 -150.00366 163 ft 12 kts 167°
2026-05-04 14:18 61.19152 -150.00360 163 ft 5 kts 240°
2026-05-04 14:19 61.19136 -150.00618 163 ft 11 kts 320°
2026-05-04 14:19 61.19219 -150.00690 163 ft 15 kts 344°
2026-05-04 14:19 61.19337 -150.00760 163 ft 20 kts 343°
2026-05-04 14:19 61.19485 -150.00841 163 ft 22 kts 345°
2026-05-04 14:20 61.19624 -150.00922 163 ft 19 kts 345°
2026-05-04 14:20 61.19746 -150.00990 163 ft 16 kts 346°
2026-05-04 14:20 61.19846 -150.01044 163 ft 13 kts 346°
2026-05-04 14:21 61.19975 -150.01204 163 ft 12 kts 267°
2026-05-04 14:21 61.19950 -150.01382 163 ft 10 kts 241°
2026-05-04 14:21 61.19906 -150.01411 163 ft 5 kts 163°
2026-05-04 14:21 61.19828 -150.01367 163 ft 22 kts 165°
2026-05-04 14:22 61.19521 -150.01199 163 ft 70 kts 165°
2026-05-04 14:22 61.18895 -150.00848 163 ft 115 kts 163°
2026-05-04 14:22 61.17981 -150.00333 163 ft 155 kts 165°
2026-05-04 14:22 61.16838 -149.99680 206 ft 187 kts 163°
2026-05-04 14:23 61.14277 -149.99106 1243 ft 197 kts 206°
2026-05-04 14:23 61.13151 -150.00876 1526 ft 210 kts 234°
2026-05-04 14:23 61.12657 -150.03751 1746 ft 223 kts 271°
2026-05-04 14:24 61.13068 -150.06838 1998 ft 233 kts 303°
2026-05-04 14:24 61.13911 -150.09786 2330 ft 247 kts 295°
2026-05-04 14:24 61.14535 -150.13193 2741 ft 258 kts 288°
2026-05-04 14:24 61.15023 -150.16766 3350 ft 262 kts 284°
2026-05-04 14:25 61.15447 -150.20534 3821 ft 272 kts 281°
2026-05-04 14:25 61.16156 -150.28227 5123 ft 276 kts 278°
2026-05-04 14:25 61.16483 -150.32170 5743 ft 279 kts 277°
2026-05-04 14:26 61.16798 -150.36108 6368 ft 282 kts 276°
2026-05-04 14:26 61.17112 -150.40122 6951 ft 285 kts 275°
2026-05-04 14:26 61.17421 -150.44147 7656 ft 284 kts 275°
2026-05-04 14:26 61.17725 -150.48135 8228 ft 287 kts 275°
2026-05-04 14:27 61.18034 -150.52200 8891 ft 287 kts 274°
2026-05-04 14:27 61.18344 -150.56306 9522 ft 289 kts 274°
2026-05-04 14:27 61.18648 -150.60379 10184 ft 288 kts 274°
2026-05-04 14:27 61.18955 -150.64522 10513 ft 301 kts 274°
2026-05-04 14:28 61.19277 -150.68900 10728 ft 317 kts 273°
2026-05-04 14:28 61.19619 -150.73550 10984 ft 333 kts 274°
2026-05-04 14:28 61.19975 -150.78365 11449 ft 342 kts 273°
2026-05-04 14:28 61.20327 -150.83165 12181 ft 341 kts 273°
2026-05-04 14:29 61.21039 -150.93007 13299 ft 348 kts 273°
2026-05-04 14:29 61.21758 -151.03012 14420 ft 355 kts 273°
2026-05-04 14:30 61.22126 -151.08104 15050 ft 357 kts 272°
2026-05-04 14:30 61.22482 -151.13164 15546 ft 361 kts 273°
2026-05-04 14:30 61.23204 -151.23415 16745 ft 361 kts 272°
2026-05-04 14:31 61.23569 -151.28619 17163 ft 367 kts 272°
2026-05-04 14:31 61.24292 -151.39069 18231 ft 369 kts 272°
2026-05-04 14:32 61.25013 -151.49640 19263 ft 371 kts 272°
2026-05-04 14:32 61.25370 -151.54968 19643 ft 377 kts 272°
2026-05-04 14:32 61.25737 -151.60353 20208 ft 377 kts 272°
2026-05-04 14:32 61.26098 -151.65762 20611 ft 382 kts 271°
2026-05-04 14:33 61.26455 -151.71173 21186 ft 382 kts 271°
2026-05-04 14:33 61.26817 -151.76637 21646 ft 386 kts 271°
2026-05-04 14:33 61.27179 -151.82176 22095 ft 389 kts 271°
2026-05-04 14:33 61.27538 -151.87665 22650 ft 389 kts 271°
2026-05-04 14:34 61.27900 -151.93257 22999 ft 394 kts 270°
2026-05-04 14:34 61.28265 -151.98943 23530 ft 393 kts 270°
2026-05-04 14:34 61.28418 -152.04512 23927 ft 390 kts 262°
2026-05-04 14:34 61.28419 -152.10135 24270 ft 395 kts 263°
2026-05-04 14:35 61.28440 -152.15823 24813 ft 393 kts 263°
2026-05-04 14:35 61.28463 -152.21501 25243 ft 396 kts 263°
2026-05-04 14:35 61.28486 -152.27307 25581 ft 400 kts 263°
2026-05-04 14:35 61.28506 -152.33035 26098 ft 399 kts 263°
2026-05-04 14:36 61.28529 -152.38745 26526 ft 402 kts 263°
2026-05-04 14:36 61.28544 -152.44621 26711 ft 409 kts 263°
2026-05-04 14:36 61.28562 -152.50482 27254 ft 408 kts 262°
2026-05-04 14:36 61.28577 -152.56389 27713 ft 409 kts 262°
2026-05-04 14:37 61.28587 -152.62308 27981 ft 413 kts 263°
2026-05-04 14:37 61.28598 -152.68224 28449 ft 413 kts 261°
2026-05-04 14:37 61.28605 -152.74268 28876 ft 415 kts 261°
2026-05-04 14:37 61.28608 -152.80273 29210 ft 418 kts 261°
2026-05-04 14:38 61.28610 -152.86282 29560 ft 421 kts 261°
2026-05-04 14:38 61.28609 -152.92333 29967 ft 420 kts 261°
2026-05-04 14:38 61.28602 -152.98407 29903 ft 428 kts 261°
2026-05-04 14:39 61.28583 -153.10971 29915 ft 442 kts 261°
2026-05-04 14:39 61.28556 -153.23769 29885 ft 444 kts 262°
2026-05-04 14:40 61.28495 -153.42725 29861 ft 439 kts 262°
2026-05-04 14:40 61.28435 -153.55429 29863 ft 442 kts 262°
2026-05-04 14:41 61.28366 -153.68166 29912 ft 442 kts 261°
2026-05-04 14:42 61.28190 -153.93529 29897 ft 441 kts 261°
2026-05-04 14:42 61.28085 -154.06267 29861 ft 441 kts 261°
2026-05-04 14:43 61.27966 -154.19006 29844 ft 444 kts 261°
2026-05-04 14:43 61.27837 -154.31758 29835 ft 442 kts 261°
2026-05-04 14:44 61.27697 -154.44397 29893 ft 440 kts 261°
2026-05-04 14:44 61.27541 -154.57163 29935 ft 446 kts 261°
2026-05-04 14:45 61.27375 -154.70024 29949 ft 445 kts 260°
2026-05-04 14:45 61.27197 -154.82785 29964 ft 442 kts 261°
2026-05-04 14:46 61.27007 -154.95550 29961 ft 444 kts 261°
2026-05-04 14:46 61.26804 -155.08322 29945 ft 442 kts 261°
2026-05-04 14:47 61.26591 -155.21043 29943 ft 443 kts 261°
2026-05-04 14:47 61.26364 -155.33846 29949 ft 446 kts 261°
2026-05-04 14:48 61.26125 -155.46663 29952 ft 444 kts 260°
2026-05-04 14:48 61.25876 -155.59383 29950 ft 444 kts 261°
2026-05-04 14:49 61.25612 -155.72205 29962 ft 445 kts 260°
2026-05-04 14:49 61.25337 -155.84963 29964 ft 446 kts 260°
2026-05-04 14:50 61.25050 -155.97801 29948 ft 445 kts 260°
2026-05-04 14:50 61.25057 -156.10652 29957 ft 450 kts 263°
2026-05-04 14:51 61.25134 -156.23608 29960 ft 451 kts 263°
2026-05-04 14:51 61.25197 -156.36542 29962 ft 447 kts 263°
2026-05-04 14:52 61.24764 -156.49245 30001 ft 437 kts 251°
2026-05-04 14:52 61.23434 -156.61530 29981 ft 439 kts 251°
2026-05-04 14:53 61.22073 -156.73796 29976 ft 438 kts 252°
2026-05-04 14:53 61.21792 -156.86664 29988 ft 457 kts 266°
2026-05-04 14:54 61.22058 -156.99785 29975 ft 457 kts 264°
2026-05-04 14:54 61.22192 -157.12834 29976 ft 453 kts 264°
2026-05-04 14:55 61.22265 -157.25882 29969 ft 453 kts 263°
2026-05-04 14:55 61.22305 -157.38913 29968 ft 454 kts 263°
2026-05-04 14:56 61.22327 -157.51968 29964 ft 453 kts 263°
2026-05-04 14:56 61.22333 -157.64883 29964 ft 451 kts 263°
2026-05-04 14:57 61.22326 -157.77889 29962 ft 450 kts 262°
2026-05-04 14:57 61.22304 -157.90858 29933 ft 450 kts 262°
2026-05-04 14:58 61.22272 -158.03700 29913 ft 449 kts 262°
2026-05-04 14:58 61.22225 -158.16739 29927 ft 450 kts 262°
2026-05-04 14:59 61.22168 -158.29610 29936 ft 449 kts 262°
2026-05-04 15:00 61.22058 -158.48990 29924 ft 450 kts 262°
2026-05-04 15:00 61.21971 -158.61830 29939 ft 446 kts 262°
2026-05-04 15:01 61.21814 -158.81250 29974 ft 449 kts 262°
2026-05-04 15:01 61.21697 -158.94118 29980 ft 444 kts 262°
2026-05-04 15:02 61.21566 -159.06833 29990 ft 445 kts 262°
2026-05-04 15:02 61.21424 -159.19618 29998 ft 446 kts 261°
2026-05-04 15:03 61.21269 -159.32491 30005 ft 446 kts 262°
2026-05-04 15:03 61.21103 -159.45288 29993 ft 444 kts 262°
2026-05-04 15:04 61.20926 -159.58025 29983 ft 443 kts 261°
2026-05-04 15:04 61.20737 -159.70735 29987 ft 442 kts 260°
2026-05-04 15:05 61.20535 -159.83405 29985 ft 444 kts 260°
2026-05-04 15:05 61.20322 -159.96167 29987 ft 443 kts 260°
2026-05-04 15:06 61.20099 -160.08856 29996 ft 439 kts 260°
2026-05-04 15:07 61.19738 -160.27895 30028 ft 443 kts 260°
2026-05-04 15:07 61.19486 -160.40523 30028 ft 442 kts 260°
2026-05-04 15:08 61.19219 -160.53201 30031 ft 443 kts 260°
2026-05-04 15:08 61.18939 -160.65947 30033 ft 443 kts 259°
2026-05-04 15:09 61.18650 -160.78651 30035 ft 441 kts 259°
2026-05-04 15:09 61.18348 -160.91321 30033 ft 442 kts 259°
2026-05-04 15:10 61.17873 -161.10361 30034 ft 441 kts 259°
2026-05-04 15:11 61.17371 -161.29346 30035 ft 440 kts 259°
2026-05-04 15:11 61.17025 -161.41923 30044 ft 440 kts 259°
2026-05-04 15:12 61.16665 -161.54561 30050 ft 439 kts 259°
2026-05-04 15:12 61.16293 -161.67189 30058 ft 440 kts 258°
2026-05-04 15:13 61.15913 -161.79746 30057 ft 437 kts 258°
2026-05-04 15:13 61.15518 -161.92294 30062 ft 440 kts 258°
2026-05-04 15:14 61.15111 -162.04942 30071 ft 439 kts 258°
2026-05-04 15:14 61.14696 -162.17470 30072 ft 439 kts 258°
2026-05-04 15:15 61.14265 -162.30086 30073 ft 439 kts 258°
2026-05-04 15:15 61.13825 -162.42630 30079 ft 440 kts 258°
2026-05-04 15:16 61.13140 -162.61562 30080 ft 440 kts 259°
2026-05-04 15:17 61.12431 -162.80403 30077 ft 438 kts 258°
2026-05-04 15:17 61.11540 -162.99121 30089 ft 433 kts 250°
2026-05-04 15:18 61.10023 -163.11104 30084 ft 433 kts 249°
2026-05-04 15:19 61.07605 -163.28975 30089 ft 433 kts 249°
2026-05-04 15:19 61.05100 -163.46870 30090 ft 436 kts 249°
2026-05-04 15:20 61.03404 -163.58809 30093 ft 436 kts 249°
2026-05-04 15:20 61.01692 -163.70755 30094 ft 438 kts 249°
2026-05-04 15:21 60.99955 -163.82782 30102 ft 439 kts 249°
2026-05-04 15:22 60.97327 -164.00810 30106 ft 441 kts 249°
2026-05-04 15:22 60.94652 -164.18964 30105 ft 444 kts 249°
2026-05-04 15:23 60.92860 -164.31026 30102 ft 443 kts 249°
2026-05-04 15:23 60.91059 -164.43047 30100 ft 444 kts 249°
2026-05-04 15:24 60.87395 -164.67247 30099 ft 447 kts 249°
2026-05-04 15:25 60.85529 -164.79440 30093 ft 448 kts 250°
2026-05-04 15:26 60.82717 -164.97667 30105 ft 450 kts 250°
2026-05-04 15:26 60.79878 -165.15861 30120 ft 450 kts 250°
2026-05-04 15:27 60.77005 -165.34084 30111 ft 450 kts 250°
2026-05-04 15:28 60.74099 -165.52335 30120 ft 451 kts 251°
2026-05-04 15:29 60.71176 -165.70487 30130 ft 452 kts 250°
2026-05-04 15:30 60.64209 -166.13049 30127 ft 454 kts 251°
2026-05-04 15:31 60.61185 -166.31210 30130 ft 455 kts 251°
2026-05-04 15:32 60.56077 -166.61494 30126 ft 455 kts 252°
2026-05-04 15:34 60.50861 -166.91908 30133 ft 460 kts 251°
2026-05-04 15:34 60.47680 -167.10210 30130 ft 460 kts 251°
2026-05-04 15:35 60.44490 -167.28384 30130 ft 460 kts 252°
2026-05-04 15:36 60.41253 -167.46657 30132 ft 462 kts 252°
2026-05-04 15:36 60.39080 -167.58815 30130 ft 461 kts 252°
2026-05-04 15:37 60.36897 -167.70960 30132 ft 462 kts 252°
2026-05-04 15:37 60.34699 -167.83104 30135 ft 465 kts 252°
2026-05-04 15:38 60.32469 -167.95348 30136 ft 467 kts 252°
2026-05-04 15:38 60.30239 -168.07590 30134 ft 466 kts 253°
2026-05-04 15:39 60.28053 -168.19775 30135 ft 466 kts 253°
2026-05-04 15:40 60.24731 -168.38133 30135 ft 467 kts 253°
2026-05-04 15:40 60.22512 -168.50295 30137 ft 468 kts 253°
2026-05-04 15:41 60.20258 -168.62572 30136 ft 468 kts 253°
2026-05-04 15:41 60.18004 -168.74765 30137 ft 469 kts 252°
2026-05-04 15:42 60.15731 -168.86989 30141 ft 469 kts 253°
2026-05-04 15:42 60.13460 -168.99126 30133 ft 467 kts 253°
2026-05-04 15:43 60.11163 -169.11320 30143 ft 467 kts 253°
2026-05-04 15:43 60.08865 -169.23448 30145 ft 469 kts 253°
2026-05-04 15:44 60.06543 -169.35628 30153 ft 470 kts 253°
2026-05-04 15:44 60.04218 -169.47739 30151 ft 469 kts 253°
2026-05-04 15:45 60.01868 -169.59912 30151 ft 469 kts 253°
2026-05-04 15:45 59.99527 -169.71968 30166 ft 470 kts 252°
2026-05-04 15:46 59.97147 -169.84146 30172 ft 471 kts 252°
2026-05-04 15:46 59.94771 -169.96227 30177 ft 471 kts 252°
2026-05-04 15:47 59.92378 -170.08319 30181 ft 471 kts 252°
2026-05-04 15:47 59.89970 -170.20422 30178 ft 472 kts 252°
2026-05-04 15:48 59.87555 -170.32474 30169 ft 471 kts 252°
2026-05-04 15:48 59.83913 -170.50529 30174 ft 472 kts 252°
2026-05-04 15:49 59.81469 -170.62555 30173 ft 471 kts 252°
2026-05-04 15:49 59.79003 -170.74611 30172 ft 472 kts 251°
2026-05-04 15:50 59.76541 -170.86581 30168 ft 472 kts 251°
2026-05-04 15:50 59.74058 -170.98581 30173 ft 472 kts 251°
2026-05-04 15:51 59.71569 -171.10539 30172 ft 472 kts 251°
2026-05-04 15:51 59.69063 -171.22510 30168 ft 470 kts 251°
2026-05-04 15:52 59.66560 -171.34395 30170 ft 472 kts 251°
2026-05-04 15:52 59.64042 -171.46284 30168 ft 472 kts 251°
2026-05-04 15:53 59.61510 -171.58171 30170 ft 472 kts 251°
2026-05-04 15:53 59.58957 -171.70090 30169 ft 473 kts 250°
2026-05-04 15:54 59.56396 -171.81972 30172 ft 472 kts 250°
2026-05-04 15:54 59.53865 -171.93851 30172 ft 470 kts 251°
2026-05-04 15:55 59.51460 -172.05716 30173 ft 469 kts 251°
2026-05-04 15:55 59.49029 -172.17612 30174 ft 469 kts 251°
2026-05-04 15:56 59.46603 -172.29408 30173 ft 469 kts 251°
2026-05-04 15:56 59.44147 -172.41280 30173 ft 470 kts 251°
2026-05-04 15:57 59.41692 -172.53075 30173 ft 469 kts 251°
2026-05-04 15:57 59.39217 -172.64900 30173 ft 468 kts 251°
2026-05-04 15:58 59.36742 -172.76657 30175 ft 469 kts 250°
2026-05-04 15:58 59.34244 -172.88452 30175 ft 469 kts 250°
2026-05-04 15:59 59.31747 -173.00180 30175 ft 469 kts 250°
2026-05-04 15:59 59.29234 -173.11914 30184 ft 469 kts 250°
2026-05-04 16:00 59.26710 -173.23633 30174 ft 469 kts 251°
2026-05-04 16:00 59.24183 -173.35298 30177 ft 468 kts 251°
2026-05-04 16:01 59.21645 -173.46950 30185 ft 469 kts 251°
2026-05-04 16:01 59.19098 -173.58577 30189 ft 468 kts 251°
2026-05-04 16:02 59.16533 -173.70226 30189 ft 469 kts 251°
2026-05-04 16:03 59.12659 -173.87691 30186 ft 469 kts 251°
2026-05-04 16:03 59.10068 -173.99291 30197 ft 469 kts 252°
2026-05-04 16:04 59.07466 -174.10883 30202 ft 469 kts 252°
2026-05-04 16:04 59.03604 -174.28297 30206 ft 468 kts 253°
2026-05-04 16:05 59.01072 -174.39941 30208 ft 467 kts 253°
2026-05-04 16:06 58.97297 -174.57181 30212 ft 466 kts 253°
2026-05-04 16:07 58.92175 -174.80342 30214 ft 469 kts 252°
2026-05-04 16:08 58.87061 -175.03212 30196 ft 464 kts 252°
2026-05-04 16:09 58.80603 -175.31746 30193 ft 465 kts 252°
2026-05-04 16:10 58.75378 -175.54553 30199 ft 467 kts 252°
2026-05-04 16:11 58.70115 -175.77287 30200 ft 468 kts 251°
2026-05-04 16:12 58.62114 -176.11381 30195 ft 468 kts 251°
2026-05-04 16:13 58.56743 -176.33977 30195 ft 467 kts 251°
2026-05-04 16:14 58.51317 -176.56566 30199 ft 468 kts 251°
2026-05-04 16:16 58.44491 -176.84651 30203 ft 469 kts 250°
2026-05-04 16:17 58.37581 -177.12727 30208 ft 469 kts 250°
2026-05-04 16:18 58.32044 -177.35077 30211 ft 468 kts 249°
2026-05-04 16:19 58.25044 -177.63005 30213 ft 469 kts 249°
2026-05-04 16:20 58.17983 -177.90825 30220 ft 470 kts 248°
2026-05-04 16:22 58.10885 -178.18443 30221 ft 468 kts 248°
2026-05-04 16:23 58.02280 -178.51477 30229 ft 470 kts 248°
2026-05-04 16:25 57.93563 -178.84450 30236 ft 469 kts 247°
2026-05-04 16:26 57.83313 -179.22613 30211 ft 470 kts 247°
2026-05-04 16:28 57.75908 -179.49791 30213 ft 470 kts 247°
2026-05-04 16:29 57.65464 -179.87582 30215 ft 470 kts 246°
2026-05-04 16:31 57.57913 179.85480 30214 ft 470 kts 246°
2026-05-04 16:32 57.48766 179.53265 30214 ft 470 kts 246°
2026-05-04 16:33 57.42628 179.31898 30216 ft 471 kts 245°
2026-05-04 16:34 57.37982 179.15857 30219 ft 471 kts 245°
2026-05-04 16:35 57.28654 178.83974 30220 ft 472 kts 245°
2026-05-04 16:36 57.23967 178.68118 30222 ft 472 kts 245°
2026-05-04 16:37 57.19234 178.52214 30217 ft 472 kts 245°
2026-05-04 16:38 57.12902 178.31111 30216 ft 472 kts 244°
2026-05-04 16:39 57.04931 178.04807 30217 ft 474 kts 244°
2026-05-04 16:40 56.98485 177.83748 30217 ft 474 kts 244°
2026-05-04 16:41 56.90379 177.57532 30209 ft 476 kts 243°
2026-05-04 16:43 56.82219 177.31450 30197 ft 475 kts 242°
2026-05-04 16:43 56.77275 177.15852 30194 ft 477 kts 242°
2026-05-04 16:45 56.67305 176.84711 30204 ft 476 kts 242°
2026-05-04 16:46 56.58932 176.58870 30197 ft 476 kts 242°
2026-05-04 16:47 56.52209 176.38322 30201 ft 477 kts 242°
2026-05-04 16:48 56.45432 176.17781 30190 ft 477 kts 241°
2026-05-04 16:49 56.38622 175.97322 30190 ft 477 kts 240°
2026-05-04 16:50 56.31738 175.76814 30186 ft 478 kts 240°
2026-05-04 16:51 56.26572 175.61537 30184 ft 476 kts 240°
2026-05-04 16:52 56.19690 175.41334 30181 ft 476 kts 240°
2026-05-04 16:53 56.14479 175.26152 30183 ft 477 kts 239°
2026-05-04 16:54 56.07535 175.06065 30182 ft 476 kts 239°
2026-05-04 16:55 55.97036 174.76007 30175 ft 477 kts 239°
2026-05-04 16:56 55.88255 174.51150 30165 ft 476 kts 239°
2026-05-04 16:57 55.82942 174.36232 30161 ft 478 kts 239°
2026-05-04 16:58 55.75821 174.16382 30165 ft 476 kts 239°
2026-05-04 17:00 55.65114 173.86833 30157 ft 477 kts 239°
2026-05-04 17:01 55.56140 173.62341 30144 ft 476 kts 239°
2026-05-04 17:02 55.48910 173.42784 30138 ft 477 kts 239°
2026-05-04 17:03 55.43480 173.28197 30138 ft 476 kts 238°
2026-05-04 17:03 55.38028 173.13641 30131 ft 476 kts 238°
2026-05-04 17:04 55.30716 172.94252 30121 ft 478 kts 238°
2026-05-04 17:05 55.23357 172.74889 30120 ft 477 kts 238°
2026-05-04 17:06 55.17845 172.60487 30120 ft 475 kts 238°
2026-05-04 17:07 55.12941 172.47743 30120 ft 477 kts 238°
2026-05-04 17:07 55.08619 172.36566 30114 ft 477 kts 238°
2026-05-04 17:08 55.03058 172.22260 30116 ft 477 kts 237°
2026-05-04 17:09 54.99342 172.12744 30114 ft 476 kts 237°
2026-05-04 17:09 54.95611 172.03227 30112 ft 476 kts 237°
2026-05-04 17:10 54.85415 171.80707 30101 ft 476 kts 232°
2026-05-04 17:11 54.81245 171.71893 30101 ft 476 kts 232°